This demonstration page uses our WeatherBlox Daily Observations layout. Learn more.

Left ArrowRight Arrow

Hourly Observations for April 4, 2019

Temp ( °F °C ) Dew Point ( °F °C ) Humidity (%) Winds ( mph kmh ) Pressure ( in mb ) Visibility ( mi km ) Precip ( " mm )
12:53 am 00:53 Clear 52 11.1 42 5.6 69 69 Calm 30.32 1027 10 16 0.00 0.00
1:53 am 01:53 Clear 52 11.1 42 5.6 69 69 Calm 30.31 1027 10 16 0.00 0.00
2:53 am 02:53 Clear 47 8.3 42 5.6 83 83 Calm 30.31 1026 10 16 0.00 0.00
3:53 am 03:53 Clear 47 8.3 41 5 80 80 Calm 30.30 1026 10 16 0.00 0.00
4:53 am 04:53 Clear 44 6.7 42 5.6 93 93 Calm 30.30 1026 10 16 0.00 0.00
5:53 am 05:53 Clear 43 6.1 41 5 93 93 Calm 30.30 1026 10 16 0.00 0.00
6:53 am 06:53 Clear 42 5.6 41 5 96 96 Calm 30.32 1027 10 16 0.00 0.00
7:53 am 07:53 Sunny 43 6.1 41 5 93 93 Calm 30.31 1027 10 16 0.00 0.00
8:53 am 08:53 Sunny 50 10 44 6.7 80 80 Calm 30.32 1027 10 16 0.00 0.00
9:53 am 09:53 Sunny 60 15.6 47 8.3 62 62 SSE 3 6 30.32 1027 10 16 0.00 0.00
10:53 am 10:53 Sunny 66 18.9 45 7.2 47 47 SSE 8 13 30.32 1027 10 16 0.00 0.00
11:53 am 11:53 Sunny 68 20 41 5 38 38 SE 14 22 30.30 1026 10 16 0.00 0.00
12:53 pm 12:53 Sunny 68 20 42 5.6 39 39 S 10 17 30.29 1026 10 16 0.00 0.00
1:53 pm 13:53 Mostly Sunny 69 20.6 40 4.4 35 35 SE 14 22 30.26 1025 10 16 0.00 0.00
2:53 pm 14:53 Sunny 69 20.6 42 5.6 38 38 SSE 10 17 30.24 1024 10 16 0.00 0.00
3:53 pm 15:53 Sunny 71 21.7 40 4.4 32 32 SE 13 20 30.20 1023 10 16 0.00 0.00
4:53 pm 16:53 Sunny 70 21.1 41 5 35 35 S 9 15 30.19 1022 10 16 0.00 0.00
5:53 pm 17:53 Sunny 69 20.6 43 6.1 39 39 SSE 10 17 30.18 1022 10 16 0.00 0.00
6:53 pm 18:53 Partly Cloudy 69 20.6 44 6.7 41 41 SE 5 7 30.16 1022 10 16 0.00 0.00
7:53 pm 19:53 Cloudy with Light Rain 68 20 47 8.3 47 47 SE 5 7 30.16 1022 10 16 0.00 0.03
8:53 pm 20:53 Cloudy with Light Rain 60 15.6 55 12.8 84 84 Calm 30.17 1022 8 13 0.04 1.02
9:53 pm 21:53 Cloudy with Light Rain 59 15 55 12.8 87 87 E 5 7 30.14 1021 10 16 0.01 0.25
10:53 pm 22:53 Cloudy with Light Rain 58 14.4 56 13.3 93 93 Calm 30.15 1021 8 13 0.02 0.51
11:39 pm 23:39 Cloudy with Light Rain 57 13.9 56 13.3 96 96 Calm 30.17 1022 4 6 0.02 0.51
11:53 pm 23:53 Cloudy with Light Rain 57 13.9 56 13.3 96 96 E 5 7 30.14 1021 5 8 0.04 1.02

Powered by AerisWeather